星链-37511(STARLINK-37511)

导读

STARLINK-37511(NORAD编号69512)是美国太空探索技术公司(SpaceX)星链低轨互联网星座的现役卫星,隶属于星链一期4408颗卫星组网的壳层部署序列。该卫星运行于约400-420公里高度的近地轨道,轨道倾角53°左右,周期约92.8分钟,配备星间激光通信链路,可向全球范围提供高速低延迟的互联网接入服务,截至2026年6月仍处于在轨工作状态,是星链全球组网覆盖的组成单元之一。

基本信息
目录编号:
69512
目录名称:
STARLINK-37511
国际标识:
2026-133E
轨道中心:
EARTH
卫星名称:
星链-37511
卫星全名:
星链-37511(STARLINK-37511)
卫星状态:
在轨 (已飞行84 天)
发射日期:
2026-06-12 UTC
国别 :
美国 (US)
星等 :
--
轨道信息
数据来源 国际轨道数据
星历时间: 2026-09-03T21:54:59+0800
18小时前
查看轨道信息
半长轴: 6840.819km
偏心率: 0.0001574
轨道倾角: 53.159°
近地点辐角 65.609°
升交点赤经 309.009°
平近点角 294.508°
近地点: 461.605km
远地点: 463.759km
周期: 93.847分钟
每日圈数: 15.344073
详细信息
固有亮度:
5
最大亮度:
2.5
卫星平台:
Starlink V1.0
覆盖范围:
全球
运营商:
太空探索技术公司
运营商所在国:
美国
制造商(研发单位):
太空探索技术公司
制造商所在国:
美国
使用方式:
暂无
卫星简介
Starlink 计划是 SpaceX 推出的全球卫星互联网项目,通过发射低轨道卫星,为全球尤其是偏远地区提供高速、低延迟的互联网服务。自 2019 年起,Starlink 已部署数千颗卫星,旨在缩小全球数字鸿沟,推动互联网普及。该项目还为军事、航空等行业提供通信支持,带来广泛经济效益。
2D轨道图
3D轨道图
轨道高度分析图
轨道倾角分析图
轨道综合分析图
查看轨道综合分析图
交会数据列表
事件ID 空间交会对象 最接近时刻(TCA) 交会距离 交会风险概率(CRP) 交会风险指数(CRI) 操作
CDM_260905-082906-010506-951221
2026-09-05T
08:29:08+0000
0.247 km
中距离
3.096606E-4 高风险 0.85
CDM_260905-030006-010506-951221
2026-09-05T
03:00:51+0000
0.553 km
远距离
5.04219E-5 中风险 0.69
CDM_260905-043406-010506-951221
2026-09-05T
04:34:39+0000
1.384 km
极远距离
2.503307E-6 低风险 0.43
CDM_260905-082006-563206-951221
2026-09-05T
08:20:26+0000
2.570 km
极远距离
1.321403E-6 低风险 0.37
CDM_260903-091605-371906-951221
2026-09-03T
09:16:06+0000
2.830 km
极远距离
1.288724E-6 低风险 0.37
CDM_260905-100206-010506-951221
2026-09-05T
10:02:56+0000
1.783 km
极远距离
1.213098E-6 低风险 0.37
CDM_260903-064004-974206-951221
2026-09-03T
06:40:09+0000
2.963 km
极远距离
1.095177E-6 低风险 0.36
CDM_260905-065506-010506-951221
2026-09-05T
06:55:20+0000
2.127 km
极远距离
8.098095E-7 极低风险 0.33
CDM_260905-012706-010506-951221
2026-09-05T
01:27:04+0000
2.338 km
极远距离
6.772054E-7 极低风险 0.32